DW0542 Weather Reports


time (UTC)temp
F
wind
direction
speed
knots
gust
knots
rain 1hr
in
rain 24hr
in
rain mn
in
humidity
%
barometer
mb
20260904101513 65 245 0.0 0.0 0.00 0.01 0.00 88 1009.6
20260904100011 65 245 0.0 0.0 0.00 0.01 0.00 88 1009.4
20260904094509 66 245 0.0 0.0 0.00 0.01 0.00 88 1009.4
20260904093008 66 245 0.0 0.0 0.00 0.01 0.00 88 1009.7
20260904091535 66 245 0.0 0.0 0.00 0.02 0.00 88 1009.7
20260904090035 66 245 0.0 0.0 0.00 0.02 0.00 88 1009.4
20260904084532 66 245 0.0 0.0 0.00 0.02 0.00 88 1009.5
20260904083036 66 245 0.0 0.0 0.00 0.02 0.00 88 1009.3
20260904081505 66 245 0.0 0.0 0.00 0.34 0.00 88 1009.4
20260904080105 66 245 0.0 0.0 0.00 0.34 0.00 88 1009.5
20260904074558 66 245 0.0 0.0 0.00 0.34 0.00 88 1009.7
20260904073057 66 245 0.0 0.0 0.00 0.34 0.00 88 1009.8
20260904071554 67 245 0.0 0.0 0.00 0.51 0.00 88 1009.9
20260904070052 67 245 0.0 0.0 0.00 0.51 0.00 88 1010.2
20260904064554 67 245 0.0 0.0 0.00 0.51 0.00 88 1010.1
20260904063046 67 245 0.0 0.0 0.00 0.51 0.00 88 1010.3
20260904061551 67 245 0.0 0.0 0.00 0.51 0.00 88 1010.4
20260904060043 67 245 0.0 0.0 0.00 0.51 0.00 88 1010.5
20260904054543 67 245 0.0 0.0 0.00 0.51 0.00 88 1010.5
20260904053039 67 245 0.0 0.0 0.00 0.51 0.00 88 1010.7
20260904050035 68 245 0.0 0.0 0.00 0.51 0.00 88 1010.9
20260904044548 68 245 0.0 0.0 0.00 0.51 0.00 88 1011.0
20260904043036 68 245 0.0 0.0 0.00 0.51 0.00 88 1011.1
20260904041529 68 245 0.0 0.0 0.00 0.51 0.00 88 1011.3
20260904040029 68 245 0.0 0.0 0.00 0.51 0.00 88 1011.5
20260904034528 68 245 0.0 0.0 0.00 0.51 0.00 88 1011.5
20260904033018 69 245 0.0 0.0 0.00 0.51 0.00 88 1011.5
20260904031517 69 245 0.0 0.0 0.00 0.51 0.00 88 1011.6
20260904030021 69 245 0.0 0.0 0.00 0.51 0.00 88 1011.8
20260904024516 69 245 0.0 0.0 0.00 0.51 0.00 88 1011.6
20260904023012 69 245 0.0 0.0 0.00 0.51 0.00 88 1011.6
20260904021521 70 245 0.0 0.0 0.00 0.51 0.00 88 1012.2
20260904020050 70 245 0.0 0.0 0.00 0.51 0.00 88 1012.0
20260904014553 70 245 0.0 0.0 0.00 0.51 0.00 88 1012.0
20260904013048 70 245 0.0 0.0 0.00 0.51 0.00 87 1012.1
20260904011546 70 245 0.0 0.0 0.00 0.51 0.00 87 1012.1
20260904010045 71 245 0.0 0.0 0.00 0.51 0.00 87 1012.1
20260904004545 71 245 0.0 0.0 0.00 0.51 0.00 87 1012.2
20260904003043 71 245 0.0 0.0 0.00 0.51 0.00 87 1011.9
20260904001537 72 245 0.0 0.0 0.00 0.51 0.00 87 1011.8
20260904000048 72 245 0.0 0.0 0.00 0.51 0.00 86 1011.6
20260903234543 73 245 0.0 0.0 0.00 0.51 0.00 86 1011.2
20260903233046 74 245 0.0 0.0 0.00 0.51 0.00 85 1011.2
20260903231536 75 245 0.0 0.0 0.00 0.51 0.00 84 1011.3
20260903230034 76 245 0.0 0.0 0.00 0.51 0.00 81 1011.1
20260903224529 78 245 0.0 0.0 0.00 0.51 0.00 80 1011.2
20260903223024 79 245 0.0 0.0 0.00 0.51 0.00 76 1011.2
20260903221523 79 245 0.0 0.0 0.00 0.51 0.51 77 1011.3
20260903220125 77 245 0.0 0.0 0.00 0.51 0.51 79 1011.4
20260903214528 78 245 0.0 0.0 0.00 0.51 0.51 79 1011.5
20260903213018 78 245 0.0 2.6 0.00 0.51 0.51 78 1011.5
20260903211516 78 249 0.0 0.0 0.00 0.51 0.51 77 1011.3
20260903210047 78 249 0.0 0.0 0.00 0.51 0.51 76 1011.4
20260903204546 78 255 0.0 0.9 0.00 0.51 0.51 77 1011.4
20260903203043 79 276 0.0 3.5 0.00 0.51 0.51 73 1011.4
20260903201542 79 277 0.0 0.9 0.00 0.51 0.51 74 1011.4
20260903200041 79 277 0.0 0.0 0.00 0.51 0.51 74 1011.5
20260903194538 79 277 0.0 0.0 0.00 0.51 0.51 75 1011.7
20260903193032 78 277 0.0 0.0 0.00 0.51 0.51 76 1011.8
20260903191546 78 277 0.0 0.0 0.00 0.51 0.51 75 1011.9
20260903190025 77 277 0.0 0.0 0.00 0.51 0.51 77 1012.1
20260903184533 77 277 0.0 0.0 0.00 0.51 0.51 76 1012.3
20260903183022 76 277 0.0 0.9 0.00 0.51 0.51 75 1012.4
20260903181550 76 277 0.9 4.3 0.00 0.52 0.51 79 1012.4
20260903180052 76 267 0.0 0.9 0.00 0.52 0.51 79 1012.5
20260903174545 75 265 2.6 7.8 0.00 0.52 0.51 80 1012.5
20260903173042 75 259 0.0 0.0 0.00 0.52 0.51 81 1012.8
20260903171541 75 201 0.0 0.0 0.00 0.52 0.51 81 1012.7
20260903170040 75 203 0.0 7.8 0.00 0.52 0.51 81 1013.0
20260903164535 74 209 0.9 7.8 0.00 0.52 0.51 83 1013.1
20260903163033 73 241 0.0 6.1 0.00 0.52 0.51 85 1013.0
20260903161527 72 281 2.6 7.0 0.00 0.52 0.51 86 1013.1
20260903160024 71 241 0.9 5.2 0.00 0.52 0.51 88 1013.1
20260903153016 69 299 0.0 0.9 0.00 0.52 0.51 89 1013.3
20260903151515 69 299 0.0 3.5 0.00 0.52 0.51 89 1013.4
20260903150019 68 299 0.0 3.5 0.00 0.52 0.51 90 1013.5
20260903144509 68 301 0.0 2.6 0.00 0.52 0.51 90 1013.6
20260903143009 67 301 0.0 0.0 0.00 0.52 0.51 90 1013.8
20260903141509 66 302 0.0 0.0 0.00 0.52 0.51 90 1014.2
20260903140005 66 302 0.0 0.0 0.00 0.52 0.51 90 1014.3
20260903134600 65 302 0.0 0.0 0.00 0.52 0.51 90 1014.4
20260903133109 65 301 0.0 0.0 0.00 0.52 0.51 90 1014.5
20260903131608 64 302 0.0 0.0 0.00 0.52 0.51 90 1014.5
20260903130112 64 301 0.0 0.0 0.00 0.52 0.51 90 1014.6
20260903124552 64 301 0.0 0.0 0.00 0.52 0.51 90 1014.6
20260903123050 64 302 0.0 0.0 0.00 0.52 0.51 89 1014.8
20260903121549 64 301 0.0 0.0 0.00 0.52 0.51 90 1014.8
20260903120049 64 301 0.0 0.0 0.00 0.52 0.51 89 1015.1
20260903114636 63 301 0.0 0.0 0.00 0.52 0.51 89 1015.3
20260903113041 64 301 0.0 0.0 0.00 0.52 0.51 89 1015.4
20260903111518 63 301 0.0 0.0 0.00 0.52 0.51 89 1015.3
20260903110015 63 301 0.0 0.0 0.00 0.52 0.51 89 1015.0
20260903104514 63 301 0.0 0.0 0.01 0.52 0.51 89 1015.0
20260903103013 63 302 0.0 3.5 0.01 0.52 0.51 89 1015.0